Location: Ash Observatory
(39.7321°N, 75.2004°W)
Time: 15:11:02
(UTC-04:00)

ISS - Pass Details

Date: 23 May 2019
Orbit: 408 x 418 km, 51.6° (Epoch: 19 June)

Event Time Altitude Azimuth Distance (km) Brightness Sun altitude
Rises 21:58:53 0° 289° (WNW) 2,351 1.2 -16.6°
Reaches altitude 10° 22:01:55 10° 320° (NW) 1,493 0.4 -17.0°
Maximum altitude 22:03:32 13° 349° (NNW) 1,333 -0.4 -17.2°
Drops below altitude 10° 22:05:09 10° 17° (NNE) 1,497 -0.6 -17.4°
Sets 22:08:12 0° 48° (NE) 2,365 0.1 -17.8°
